Weather History for Ubon Ratchathani, Thailand

Change the Weather History Date:

Monday, October 7, 2013

  Actual Average Record
Temperature  
Mean Temperature 82 °F -  
Max Temperature 93 °F 88 °F - ()
Min Temperature 71 °F 71 °F - ()
Cooling Degree Days 17    
Growing Degree Days 32 (Base 50)    
Moisture  
Dew Point 71 °F    
Average Humidity 75    
Maximum Humidity 100    
Minimum Humidity 52    
Precipitation  
Precipitation 0.28 in 0.11 in - ()
Sea Level Pressure  
Sea Level Pressure 29.79 in    
Wind  
Wind Speed 3 mph ()    
Max Wind Speed 8 mph    
Max Gust Speed -    
Visibility 3.8 miles    
Events Rain    
T = Trace of Precipitation, MM = Missing Value Source: Averaged Metar Reports

Daily Weather History Graph

Daily Weather History Graph

Search for Another Location

Airport:

Trip Planner

Search our weather history database for the weather conditions in past years. The results will help you decide how hot, cold, wet, or windy it might be!

Date:

Astronomy

Oct. 07, 2013 Rise Set
Actual Time 5:50 AM ICT 5:45 PM ICT
Civil Twilight 5:29 AM ICT 6:07 PM ICT
Nautical Twilight 5:04 AM ICT 6:32 PM ICT
Astronomical Twilight 4:39 AM ICT 6:56 PM ICT
Moon 7:41 AM ICT (10/7) 7:32 PM ICT (10/7)
Length of Visible Light 12h 37m
Length of Day
11h 54m
Waxing Crescent, 6% of the Moon is Illuminated
Oct 7
Waxing Crescent
Oct 12
First Quarter
Oct 19
Full
Oct 27
Last Quarter
Nov 3
New

Hourly Weather History & Observations

Time (ICT) Temp. Heat Index Dew Point Humidity Pressure Visibility Wind Dir Wind Speed Gust Speed Precip Events Conditions
12:00 AM 77.0 °F - 71.6 °F 83% 29.83 in 3.7 mi South 2.3 mph - N/A Rain Rain
1:00 AM 75 °F - 72 °F 89% 29.82 in 4 mi ESE 3.5 mph - - Rain Light Rain
1:00 AM 75.2 °F - 73.4 °F 94% 29.80 in 3.7 mi ESE 3.5 mph - N/A   Mostly Cloudy
2:00 AM 75.2 °F - 73.4 °F 94% 29.80 in 3.7 mi East 2.3 mph - N/A   Mostly Cloudy
4:00 AM 73.4 °F - 71.6 °F 94% 29.80 in 3.1 mi NE 4.6 mph - N/A Rain Rain
5:00 AM 73.4 °F - 71.6 °F 94% 29.80 in 3.1 mi North 4.6 mph - N/A   Mostly Cloudy
6:00 AM 73.4 °F - 71.6 °F 94% 29.80 in 2.5 mi NNE 3.5 mph - N/A   Mostly Cloudy
6:30 AM 71.6 °F - 71.6 °F 100% 29.83 in 2.5 mi NE 4.6 mph - N/A   Mostly Cloudy
7:00 AM 73 °F - 71 °F 93% 29.88 in 2 mi ENE 3.5 mph - - Rain Light Rain
7:00 AM 71.6 °F - 69.8 °F 94% 29.83 in 2.5 mi ENE 3.5 mph - N/A Rain Rain
9:00 AM 77.0 °F - 71.6 °F 83% 29.86 in 4.3 mi ENE 3.5 mph - N/A   Mostly Cloudy
10:00 AM 80.6 °F 84.6 °F 71.6 °F 74% 29.86 in 5.0 mi ESE 4.6 mph - N/A   Mostly Cloudy
11:00 AM 82.4 °F 86.3 °F 69.8 °F 66% 29.83 in 4.3 mi NE 8.1 mph - N/A   Mostly Cloudy
12:00 PM 84.2 °F 89.6 °F 71.6 °F 66% 29.80 in 4.3 mi NNE 3.5 mph - N/A   Mostly Cloudy
1:00 PM 85 °F - 70 °F 52% 29.77 in 5 mi NE 6.9 mph - -   Haze
1:00 PM 86.0 °F 90.4 °F 69.8 °F 58% 29.77 in 5.0 mi NE 6.9 mph - N/A   Mostly Cloudy
2:00 PM 86.0 °F 90.4 °F 69.8 °F 58% 29.74 in 5.0 mi NE 3.5 mph - N/A   Mostly Cloudy
3:00 PM 87.8 °F 92.6 °F 69.8 °F 55% 29.71 in 5.0 mi ENE 4.6 mph - N/A   Mostly Cloudy
4:00 PM 87.8 °F 91.4 °F 68.0 °F 52% 29.71 in 5.0 mi NE 4.6 mph - N/A   Scattered Clouds
5:00 PM 86.0 °F 89.4 °F 68.0 °F 55% 29.71 in 4.3 mi ENE 2.3 mph - N/A   Unknown
5:30 PM 86.0 °F 90.4 °F 69.8 °F 58% 29.71 in 4.3 mi Calm Calm - N/A   Unknown
6:00 PM 86.0 °F 90.4 °F 69.8 °F 58% 29.71 in 3.7 mi Calm Calm - N/A   Unknown
7:00 PM 82 °F - 72 °F 64% 29.77 in 2 mi NE 5.8 mph - -   Mist
7:00 PM 82.4 °F 87.2 °F 71.6 °F 70% 29.77 in 2.5 mi NE 5.8 mph - N/A   Mist
8:00 PM 80.6 °F 84.6 °F 71.6 °F 74% 29.80 in 2.5 mi NE 3.5 mph - N/A   Mist
10:00 PM 77.0 °F - 69.8 °F 78% 29.83 in 5.0 mi NNE 2.3 mph - N/A   Unknown
11:00 PM 75.2 °F - 69.8 °F 83% 29.83 in 5.0 mi ENE 2.3 mph - N/A   Unknown